DECAYED
Showing default

POEM 4, 62461 (Decayed)

Orbit data source: Space-Track

POEM 4, 62461 was a payload satellite owned by ISRO (IN) in LEO that was launched on Mon, 30 Dec 2024 UTC via a PSLV launch vehicle from the Sirharikota (SRI). Payload-class satellites include a variety of spacecraft equipped with specific instruments for various scientific and technological missions. These include communications satellites like Starlink; space stations such as the ISS; scientific satellites like the Hubble; Earth observation satellites from companies like Planet Labs, Umbra, and HawkEye 360; GPS; miniature CubeSats for education and research; and military/defense satellites.

Not visible in the next 10 days
Identifier
62461, 2024-253C
Orbit
Decayed
Country
Flag of ININ / IND
Related business
Manufacturer
ISRO SAC/Banga
Mission
Decayed Civil Technology
Bus & Motor
POEM, Unknown motor
Mass
50 kg wet, ~50 kg dry
Launch date (UTC)
2024-12-30 (1 year ago)
Launch vehicle
PSLV
Launch site
Sirharikota (SRI)
Object type
Payload
Rocket body
Debris
Shape & HBR
Cyl + Box, 1.5 m
Radar Cross Section
4.918 m², Large (>1 m²)

Expand to show TLE details & history
Last TLE update: 10 months ago

TLE from 10 months ago
0 POEM 4
1 62461U 24253C   25093.60098506  .06123810  12042-4  53849-3 0  9994
2 62461  55.1994 162.5248 0005929 311.9454 141.1615 16.38452900 14905
Epoch: 2025-04-03T14:25Z
TLE epoch observation values (Epoch: 2025-04-03T14:25:25.109Z)
Latitude
55.2296°
Longitude
-150.48786°
Altitude
180.119 km
Speed
7.803 km/s
True Right ascension
17h 12m 09s
True Declination
55° 03' 15"
Sunlit
Object was in daylight at epoch
Visualization orbit readout
Latitude
Unknown
Longitude
Unknown
Altitude
Unknown
Speed
Unknown
Apparent Right ascension
Unknown
Apparent Declination
Unknown
Sunlit
N/A
Visualization observer readout
Local Sidereal Time
09:34:24
Azimuth
Unknown
Elevation
Unknown
Doppler factor
Unknown
Orbital elements
Apogee altitude
173.731 km
Perigee altitude
165.966 km
Semi-major axis
6,547.985 km
Eccentricity
0.00059
Inclination
55.1994°
RAAN
162.5248°
Arg. of periapsis
311.9454°
True anomaly
141.20408°
Mean anomaly
141.1615°
Eccentric anomaly
141.18279°
Mean motion
4.0962 °/min
Orbital period
87.89 mins
BSTAR
0.00053849
Loading maneuver chart data...
Computing Atmospheric mass density...
Loading historical data...
Loading historical data...
Loading historical data...
Loading historical data...
Loading historical data...
Loading historical data...
Loading historical data...
Other satellites on launch #253 in the year 2024 (2024-12-30 UTC)

Documentation

Showing up to 5 results
|